Powrót do katalogu

BREEZE-M DEB

TANK

AktywnyHEO
NORAD 37187·DEBRIS·🇷🇺 Russia

Wystrzelony Oct 14, 2010 z Baikonur Cosmodrome

Loading…

Następne Przeloty (najbliższe 24 godziny)

TLE

ŚwieżeSource: Space-Track

Epoka: Sep 14, 2026, 05:08 UTC

1 37187U 10053C   26257.21393879  .00001515  00000-0  34217-3 0  9991
2 37187  49.5745  80.2730 5111289 269.2953  34.5944  5.41321693306502

Śledź BREEZE-M DEB w czasie rzeczywistym z AllMySat

Download on the App Store